Date String (YYYY-MM-DD hh:mm:ss) UTC,Instrument flags,Ambient pressure (hPa),Sample flow (lpm),Bypass flow (lpm),Sample temperature (°C),Ambient temperature (°C),ASC tube jacket temperature (°C),LED temperature (°C),Box temperature (°C),Sample RH (%),Span deviation,Mass concentration (μg/m³),Mass concentration (μg/m³),Mass concentration (μg/m³)
DateTimeUTC,F1_M11,P_M11,Q1_M11,Q2_M11,T1_M11,T2_M11,T3_M11,T4_M11,T5_M11,U1_M11,ZSPAN_M11,X0_M11,X2_M11,X1_M11
2023-04-08 20:00:00,,0829.3,4.99,0.00,25.0,23.5,00.0,33.2,26.5,09.9,0000.0,0012.99,0004.17,0002.57
2023-04-08 20:01:00,,0829.3,4.99,0.00,25.0,23.5,00.0,33.2,26.5,10.0,0000.0,0013.63,0004.19,0002.59
2023-04-08 20:02:00,,0829.3,5.00,0.00,25.0,23.5,00.0,33.2,26.5,09.6,0000.0,0013.38,0004.21,0002.59
2023-04-08 20:03:00,,0829.3,5.01,0.00,25.0,23.5,00.0,33.2,26.6,10.0,0000.0,0013.95,0004.26,0002.61
2023-04-08 20:04:00,,0829.3,5.00,0.00,25.0,23.6,00.0,33.2,26.6,10.0,0000.0,0014.57,0004.34,0002.62
2023-04-08 20:05:00,,0829.3,5.00,0.00,25.0,23.6,00.0,33.3,26.6,09.9,0000.0,0014.21,0004.41,0002.62
2023-04-08 20:06:00,,0829.3,5.00,0.00,25.0,23.6,00.0,33.2,26.6,09.9,0000.0,0014.01,0004.43,0002.63
2023-04-08 20:07:00,,0829.3,5.00,0.00,25.0,23.6,00.0,33.2,26.6,09.7,0000.0,0013.55,0004.36,0002.60
2023-04-08 20:08:00,,0829.3,5.00,0.00,25.0,23.6,00.0,33.3,26.6,10.1,0000.0,0014.15,0004.35,0002.59
2023-04-08 20:09:00,,0829.3,5.00,0.00,25.0,23.6,00.0,33.3,26.6,10.1,0000.0,0014.40,0004.33,0002.57
2023-04-08 20:10:00,,0829.2,5.00,0.00,25.0,23.6,00.0,33.3,26.6,09.8,0000.0,0014.81,0004.36,0002.55
2023-04-08 20:11:00,,0829.2,4.99,0.00,25.0,23.6,00.0,33.3,26.6,09.9,0000.0,0014.84,0004.32,0002.52
2023-04-08 20:12:00,,0829.2,5.01,0.00,25.0,23.7,00.0,33.3,26.6,10.0,0000.0,0014.21,0004.26,0002.47
2023-04-08 20:13:00,,0829.2,5.01,0.00,25.0,23.7,00.0,33.3,26.6,09.8,0000.0,0014.03,0004.27,0002.46
2023-04-08 20:14:00,,0829.2,5.00,0.00,25.0,23.7,00.0,33.3,26.6,09.8,0000.0,0014.02,0004.27,0002.44
2023-04-08 20:15:00,,0829.2,4.99,0.00,25.1,23.7,00.0,33.3,26.6,10.0,0000.0,0012.81,0004.20,0002.41
2023-04-08 20:16:00,,0829.2,4.99,0.00,25.0,23.7,00.0,33.3,26.6,10.0,0000.0,0012.46,0004.13,0002.38
2023-04-08 20:17:00,,0829.1,5.00,0.00,25.1,23.7,00.0,33.3,26.6,09.9,0000.0,0012.14,0004.05,0002.35
2023-04-08 20:18:00,,0829.1,5.00,0.00,25.1,23.7,00.0,33.3,26.6,10.1,0000.0,0012.38,0004.04,0002.35
2023-04-08 20:19:00,,0829.2,4.99,0.00,25.1,23.7,00.0,33.3,26.7,10.0,0000.0,0012.81,0004.03,0002.36
2023-04-08 20:20:00,,0829.1,5.01,0.00,25.1,23.7,00.0,33.3,26.6,10.1,0000.0,0012.76,0004.01,0002.36
2023-04-08 20:21:00,,0829.1,5.00,0.00,25.1,23.7,00.0,33.3,26.6,09.9,0000.0,0012.43,0004.00,0002.37
2023-04-08 20:22:00,,0829.2,4.99,0.00,25.1,23.7,00.0,33.3,26.6,10.2,0000.0,0012.24,0004.03,0002.39
2023-04-08 20:23:00,,0829.2,5.01,0.00,25.1,23.7,00.0,33.4,26.6,10.3,0000.0,0012.08,0004.01,0002.38
2023-04-08 20:24:00,,0829.2,5.00,0.00,25.1,23.7,00.0,33.4,26.6,10.3,0000.0,0011.97,0003.99,0002.39
2023-04-08 20:25:00,,0829.1,5.00,0.00,25.1,23.7,00.0,33.4,26.6,10.3,0000.0,0013.08,0003.96,0002.41
2023-04-08 20:26:00,,0829.1,5.00,0.00,25.1,23.7,00.0,33.4,26.6,10.3,0000.0,0014.15,0003.98,0002.40
2023-04-08 20:27:00,,0829.2,4.99,0.00,25.1,23.7,00.0,33.4,26.6,10.3,0000.0,0015.22,0004.07,0002.43
2023-04-08 20:28:00,,0829.2,5.00,0.00,25.1,23.7,00.0,33.4,26.6,10.0,0000.0,0015.48,0004.12,0002.43
2023-04-08 20:29:00,,0829.2,5.00,0.00,25.1,23.7,00.0,33.4,26.6,09.8,0000.0,0015.23,0004.13,0002.43
2023-04-08 20:30:00,,0829.1,5.01,0.00,25.1,23.7,00.0,33.4,26.6,09.9,0000.0,0013.82,0004.16,0002.42
2023-04-08 20:31:00,,0829.1,5.00,0.00,25.1,23.7,00.0,33.4,26.6,10.0,0000.0,0013.37,0004.15,0002.43
2023-04-08 20:32:00,,0829.1,5.00,0.00,25.1,23.7,00.0,33.4,26.6,10.4,0000.0,0013.54,0004.17,0002.43
2023-04-08 20:33:00,,0829.1,5.00,0.00,25.1,23.7,00.0,33.4,26.6,10.5,0000.0,0013.75,0004.18,0002.42
2023-04-08 20:34:00,,0829.1,4.99,0.00,25.1,23.7,00.0,33.4,26.6,10.7,0000.0,0014.53,0004.22,0002.44
2023-04-08 20:35:00,,0829.2,5.02,0.00,25.1,23.7,00.0,33.4,26.7,10.7,0000.0,0014.85,0004.27,0002.43
2023-04-08 20:36:00,,0829.1,5.01,0.00,25.1,23.7,00.0,33.4,26.6,10.4,0000.0,0014.19,0004.35,0002.43
2023-04-08 20:37:00,,0829.2,5.00,0.00,25.1,23.7,00.0,33.4,26.6,10.4,0000.0,0012.86,0004.31,0002.42
2023-04-08 20:38:00,,0829.2,5.00,0.00,25.1,23.7,00.0,33.4,26.6,10.3,0000.0,0012.07,0004.24,0002.40
2023-04-08 20:39:00,,0829.2,4.99,0.00,25.1,23.7,00.0,33.4,26.6,10.3,0000.0,0011.96,0004.27,0002.42
2023-04-08 20:40:00,,0829.2,5.00,0.00,25.1,23.7,00.0,33.4,26.6,10.3,0000.0,0012.21,0004.33,0002.42
2023-04-08 20:41:00,,0829.2,5.01,0.00,25.1,23.7,00.0,33.4,26.7,10.6,0000.0,0012.76,0004.32,0002.43
2023-04-08 20:42:00,,0829.2,5.00,0.00,25.1,23.7,00.0,33.4,26.7,10.3,0000.0,0013.51,0004.29,0002.42
2023-04-08 20:43:00,,0829.2,5.00,0.00,25.1,23.7,00.0,33.4,26.6,10.3,0000.0,0013.69,0004.30,0002.41
2023-04-08 20:44:00,,0829.2,4.99,0.00,25.1,23.7,00.0,33.4,26.6,10.4,0000.0,0013.43,0004.22,0002.38
2023-04-08 20:45:00,,0829.2,5.01,0.00,25.1,23.6,00.0,33.4,26.6,10.4,0000.0,0013.35,0004.26,0002.40
2023-04-08 20:46:00,,0829.2,5.00,0.00,25.1,23.7,00.0,33.4,26.6,10.5,0000.0,0014.60,0004.30,0002.43
2023-04-08 20:47:00,,0829.3,4.99,0.00,25.1,23.7,00.0,33.4,26.6,10.8,0000.0,0014.41,0004.24,0002.46
2023-04-08 20:48:00,,0829.3,5.00,0.00,25.1,23.7,00.0,33.4,26.6,10.8,0000.0,0014.32,0004.26,0002.49
2023-04-08 20:49:00,,0829.3,4.99,0.00,25.1,23.6,00.0,33.4,26.6,10.5,0000.0,0014.71,0004.31,0002.50
2023-04-08 20:50:00,,0829.3,5.00,0.00,25.1,23.6,00.0,33.4,26.6,10.7,0000.0,0014.43,0004.26,0002.50
2023-04-08 20:51:00,,0829.3,5.01,0.00,25.1,23.6,00.0,33.4,26.6,10.8,0000.0,0014.26,0004.24,0002.51
2023-04-08 20:52:00,,0829.4,4.99,0.00,25.1,23.6,00.0,33.4,26.6,11.2,0000.0,0013.61,0004.24,0002.52
2023-04-08 20:53:00,,0829.3,4.99,0.00,25.1,23.6,00.0,33.4,26.6,10.9,0000.0,0012.86,0004.27,0002.53
2023-04-08 20:54:00,,0829.3,5.00,0.00,25.1,23.6,00.0,33.4,26.6,10.9,0000.0,0012.37,0004.22,0002.55
2023-04-08 20:55:00,,0829.2,5.00,0.00,25.1,23.6,00.0,33.4,26.6,10.8,0000.0,0012.46,0004.25,0002.57
2023-04-08 20:56:00,,0829.3,5.01,0.00,25.1,23.6,00.0,33.4,26.6,10.7,0000.0,0012.03,0004.20,0002.57
2023-04-08 20:57:00,,0829.3,5.00,0.00,25.1,23.6,00.0,33.4,26.6,10.7,0000.0,0010.24,0004.12,0002.52
2023-04-08 20:58:00,,0829.2,4.99,0.00,25.1,23.6,00.0,33.4,26.6,11.0,0000.0,0011.09,0004.08,0002.49
2023-04-08 20:59:00,,0829.3,4.99,0.00,25.1,23.6,00.0,33.4,26.6,10.9,0000.0,0011.88,0004.10,0002.47
